EHI
0 0 0 0 0 0 0 0 0 0 1 3 6 7 8 10 16 20 21 20 20 22 22 18 14 10 9 8 10 14 18 20 20 18 14 9 6 5 5 3 3 6 8 8
0 0 0 0 0 0 0 0 0 0 1 3 5 6 8 10 13 17 18 18 18 20 20 17 14 13 12 11 12 14 17 19 19 16 11 7 5 4 4 4 5 6 7 8
0 0 0 0 0 0 0 0 0 0 1 2 4 6 10 12 13 16 18 17 17 18 18 17 15 15 15 15 16 17 18 18 15 12 8 6 4 3 5 6 7 8 7 7
0 0 0 0 0 0 0 0 0 0 1 2 4 7 12 15 16 18 19 19 18 17 17 16 14 14 14 16 18 19 18 15 10 8 7 7 6 5 7 8 8 8 7 6
0 0 0 0 0 0 0 0 0 1 2 2 3 6 12 15 16 17 18 19 19 17 16 15 13 13 14 15 16 16 13 10 8 7 7 7 8 9 9 8 7 6 5 5
0 0 0 0 0 0 0 0 1 2 2 2 3 6 9 11 13 14 15 17 15 14 15 15 12 12 13 13 12 11 8 7 7 7 8 8 10 10 8 7 5 3 2 2
0 0 0 0 0 0 1 1 2 3 3 4 6 8 9 10 11 11 12 13 12 12 15 16 13 11 11 11 10 9 8 8 9 9 8 8 8 7 6 4 2 1 0 0
0 0 1 2 2 2 3 3 3 4 4 6 9 9 9 10 11 11 11 10 10 13 16 17 14 12 11 11 11 10 10 10 10 8 6 5 5 5 4 3 2 1 0 0
0 0 1 2 3 3 3 4 4 5 7 9 10 8 7 9 11 12 10 9 10 13 17 18 16 12 11 11 10 10 10 10 8 5 3 4 5 6 5 4 3 1 0 0
0 0 0 1 3 3 3 4 6 7 8 10 10 8 7 8 12 13 12 11 12 15 18 19 16 12 10 9 9 9 9 8 5 3 2 3 5 6 5 4 3 2 0 0
1 0 0 1 3 3 4 6 7 7 9 11 11 9 8 10 13 16 15 15 17 20 21 20 16 12 10 10 10 10 9 7 4 2 2 2 3 4 3 2 2 1 0 0
1 0 1 2 3 4 5 6 6 7 9 11 10 8 8 10 14 16 17 18 20 22 23 20 16 12 10 10 11 12 10 6 4 2 2 2 1 1 1 1 1 0 0 0
1 0 1 2 3 3 3 4 5 6 8 10 10 8 8 10 12 15 16 18 20 22 22 19 16 13 10 8 9 11 9 5 3 1 1 1 1 0 0 0 0 0 0 0
0 0 0 1 3 2 1 2 3 5 7 8 8 8 8 8 9 11 13 15 18 21 20 18 16 13 11 10 10 10 7 4 2 1 0 0 0 0 0 0 0 0 0 0
0 0 0 0 1 1 0 1 2 4 5 6 6 6 6 6 6 7 10 13 17 19 18 16 13 10 10 11 10 8 5 3 3 2 1 0 0 0 0 0 0 0 0 0
0 0 0 0 0 0 0 0 1 3 4 4 4 4 4 4 5 8 11 14 18 19 17 15 11 8 7 8 7 5 4 3 3 3 2 1 0 0 0 0 0 0 0 0
0 0 0 0 0 0 0 0 1 3 3 3 3 4 5 5 7 9 12 15 18 18 16 14 12 9 7 4 3 2 2 2 1 2 3 2 1 0 0 0 0 0 0 0
0 0 0 0 0 0 0 1 3 5 5 3 4 6 6 7 7 8 11 15 18 18 16 13 10 9 7 5 3 1 1 1 0 1 2 2 1 0 0 0 0 0 0 0
0 1 1 1 1 1 1 2 5 7 7 6 6 7 7 7 6 7 11 15 16 17 14 9 6 7 8 6 3 2 1 1 1 0 1 1 1 0 0 0 0 0 0 0
2 2 2 2 2 2 2 4 7 9 9 8 7 7 7 5 4 6 10 13 13 12 9 5 4 6 7 4 2 2 2 2 1 0 0 0 0 0 0 0 0 0 0 0
3 3 2 3 3 4 4 6 8 9 9 8 7 6 5 4 3 6 9 11 9 6 4 3 3 5 4 2 1 2 2 2 1 0 0 0 0 0 0 0 0 0 0 0
1 1 1 1 3 4 5 5 6 7 8 8 6 5 5 5 4 6 8 9 7 4 2 2 2 2 1 1 2 2 1 1 0 0 0 0 0 0 0 0 0 0 0 0
1 1 1 0 1 2 3 3 3 4 5 6 5 5 5 5 5 6 7 6 4 2 2 2 1 0 0 1 2 2 1 0 0 0 0 0 0 0 0 0 0 0 0 0
2 2 1 0 0 1 2 1 1 2 2 3 3 3 4 5 6 6 5 4 2 1 1 1 0 0 0 1 1 1 0 0 0 0 1 1 0 0 0 0 0 0 0 0
2 1 1 0 0 1 2 2 2 2 1 1 1 1 2 4 5 5 4 3 1 0 0 0 0 0 0 0 0 0 0 0 0 0 1 1 0 0 0 0 0 0 0 0
1 0 0 0 0 0 1 1 1 1 1 1 0 0 1 2 4 4 3 2 1 0 0 0 0 0 0 0 0 0 0 0 0 0 1 1 0 0 0 0 0 0 0 0
0 0 0 0 0 0 0 0 0 1 1 1 0 0 1 2 3 3 3 2 1 0 0 0 0 0 0 0 0 0 0 0 0 0 0 0 0 0 0 0 0 0 0 0
Wind_Speed
8 6 6 8 8 9 12 11 11 8 7 2 2 2 3 4 5 6 6 7 7 6 7 7 7 6 6 6 6 6 5 5 4 3 3 2 1 1 1 1 1 1 1 1
9 8 8 9 9 10 11 10 11 9 6 2 2 2 3 5 5 5 6 6 7 7 7 7 7 7 7 6 6 6 6 5 4 4 3 2 1 1 1 1 1 1 1 1
9 7 9 12 10 10 9 8 8 8 4 2 2 2 3 4 5 5 5 5 6 6 7 7 7 7 7 6 6 6 6 5 5 4 3 2 2 1 1 1 1 1 1 1
7 7 11 3 1 3 5 4 4 3 2 2 2 1 2 3 3 3 4 4 5 5 6 7 7 7 6 7 6 6 5 5 4 4 3 3 2 2 1 1 1 1 1 1
7 9 8 4 3 3 5 4 2 3 2 1 1 3 4 2 2 3 3 3 3 4 5 6 7 7 7 7 6 6 5 5 5 4 4 3 3 2 1 1 1 1 1 1
8 9 8 3 3 1 5 5 1 1 2 2 4 4 2 2 1 3 3 3 3 4 5 6 6 7 7 7 6 5 5 4 4 4 4 3 3 2 2 1 1 1 1 1
9 9 4 3 1 4 7 1 3 1 1 3 2 3 3 2 2 3 3 4 4 5 5 5 6 6 6 6 5 5 5 5 4 4 4 4 3 2 2 1 1 0 1 1
8 9 4 3 2 2 3 3 2 2 2 1 1 2 2 3 4 4 4 5 5 5 5 5 5 6 6 5 5 5 5 5 5 4 3 4 4 3 2 2 2 2 1 1
4 2 4 2 2 3 2 1 1 2 2 1 1 1 2 3 4 4 4 5 5 5 5 5 5 5 5 5 5 6 5 5 5 4 3 3 3 3 3 2 1 1 1 1
3 1 1 1 2 2 2 2 2 1 0 0 1 2 2 3 3 4 4 4 5 5 5 5 5 5 5 5 5 6 6 5 4 4 4 4 2 2 1 1 1 1 1 1
4 2 2 1 2 2 2 2 1 0 0 1 1 1 2 2 2 3 3 3 4 4 5 5 5 5 5 6 6 6 5 5 5 4 3 3 3 1 0 1 1 2 2 2
3 1 3 2 3 4 3 2 1 1 0 0 1 1 2 2 2 2 3 3 4 4 5 5 5 5 5 6 6 5 5 5 4 3 3 3 3 3 3 1 2 1 2 3
4 4 5 5 4 4 4 2 1 1 1 1 1 1 2 2 2 3 3 4 4 4 5 5 5 5 5 6 5 5 4 3 3 3 3 3 3 2 3 4 5 4 3 2
5 5 5 5 4 3 3 2 1 1 1 1 1 2 2 2 2 3 3 3 4 5 5 5 5 5 5 5 5 5 4 4 4 3 3 3 3 2 2 2 2 2 5 5
6 6 6 5 4 3 3 2 2 2 1 1 1 2 2 2 2 2 3 3 4 5 5 5 4 4 4 5 5 4 4 3 3 3 3 2 2 2 2 2 1 1 1 4
6 6 6 5 4 3 3 3 2 2 2 2 2 2 2 2 3 3 3 3 4 4 4 4 4 4 4 4 4 4 3 3 3 3 3 3 2 2 2 2 2 2 2 1
7 7 6 5 5 4 4 3 3 2 2 2 2 2 3 3 3 3 3 3 3 3 4 4 4 4 4 4 4 3 3 5 5 4 3 2 2 2 2 2 2 2 1 1
8 7 7 6 6 5 4 3 3 2 2 2 2 3 4 4 3 3 3 3 3 3 4 4 4 4 4 4 3 3 3 4 4 3 2 2 2 2 2 2 2 2 1 1
6 6 6 5 5 5 4 4 3 2 2 3 3 3 3 3 3 4 4 4 4 4 3 3 4 4 4 4 3 4 3 4 4 3 3 3 4 3 2 2 2 2 1 1
4 4 4 4 4 4 3 3 2 2 2 2 3 3 3 3 4 4 4 4 2 2 3 3 4 4 4 4 3 3 4 4 4 3 3 3 3 3 3 2 2 2 2 2
3 3 4 3 3 2 2 2 2 2 2 3 3 3 3 3 4 4 4 3 3 3 3 4 4 3 3 2 4 3 3 3 4 3 3 3 3 3 2 2 2 2 2 2
1 2 2 2 2 2 2 1 2 2 2 2 2 3 3 4 4 4 4 2 3 4 3 3 3 3 2 2 3 3 3 3 4 3 3 3 3 3 2 3 3 2 2 2
1 1 2 2 2 2 2 2 2 2 2 2 2 2 2 2 2 3 3 3 4 4 3 2 4 5 3 4 3 3 3 4 3 3 3 3 2 2 3 3 3 2 2 2
0 0 1 1 1 2 2 2 1 1 2 2 2 2 2 2 2 2 1 4 4 4 2 4 7 6 6 5 3 3 3 3 3 3 2 2 2 2 2 2 2 2 2 2
0 0 0 1 2 2 2 2 2 2 2 2 2 2 2 2 2 2 2 3 5 4 3 5 7 6 5 3 3 2 2 2 2 2 2 2 2 2 2 2 2 2 2 1
0 0 1 0 0 0 1 2 1 1 2 1 1 1 1 2 2 3 3 4 4 4 3 3 4 4 3 3 2 2 2 2 3 3 2 2 2 2 2 2 2 2 1 1
1 1 1 1 1 1 1 1 1 1 1 1 2 2 2 2 2 2 3 3 3 3 2 2 3 3 3 2 1 1 1 2 2 1 1 1 1 2 1 2 2 1 1 1
Wind_Direction
263 259 246 245 241 237 242 255 264 267 267 272 268 227 185 166 161 157 157 162 165 169 165 164 163 163 167 164 161 160 158 156 145 142 126 114 114 111 110 87 53 46 18 357
243 235 237 242 241 240 245 253 257 261 262 301 286 198 179 179 174 177 172 168 170 171 166 165 165 165 163 162 161 161 159 153 146 141 132 135 145 144 139 121 42 23 11 2
244 233 239 239 237 236 237 243 255 259 266 270 243 201 193 192 192 189 179 171 168 168 170 169 168 166 165 161 158 160 158 151 145 148 149 152 158 151 165 150 99 47 19 8
252 230 237 229 261 240 227 243 257 266 280 276 277 240 199 188 187 192 179 169 168 170 169 167 164 161 164 155 155 159 156 149 150 155 156 153 154 157 170 155 104 66 44 21
250 240 236 200 194 231 232 225 252 253 250 243 224 195 168 146 177 179 165 160 164 169 161 156 157 157 159 160 159 161 160 159 159 161 160 156 156 159 156 150 124 117 93 48
242 248 247 179 121 225 239 215 126 251 233 222 219 228 122 88 143 146 141 143 150 151 148 149 152 156 162 164 163 163 161 158 155 156 159 154 145 148 142 160 155 193 110 84
245 247 247 58 108 217 233 123 76 11 272 238 253 335 48 87 104 125 125 127 131 134 139 147 153 160 168 164 163 159 150 149 152 153 156 147 143 147 156 163 130 107 120 142
238 241 220 54 189 244 23 44 46 22 353 356 50 58 94 110 112 123 128 129 130 131 133 139 152 161 163 158 151 149 147 150 151 156 163 142 150 154 163 179 177 181 196 234
272 309 50 34 20 27 2 331 351 348 355 40 104 105 105 122 120 123 128 128 131 131 132 138 153 164 160 152 153 153 152 153 154 156 155 153 159 162 177 188 225 229 247 287
250 187 42 39 15 358 339 321 320 331 327 131 126 123 126 131 137 135 135 136 137 137 139 142 154 160 156 156 158 154 154 155 159 164 165 156 170 174 186 179 226 263 293 304
240 252 251 218 13 354 341 328 318 0 162 184 149 149 142 140 140 143 146 143 143 145 146 142 146 154 157 155 156 154 154 160 166 167 158 154 151 109 193 96 13 304 306 305
255 233 264 287 318 319 320 322 308 265 230 186 169 159 153 145 140 147 152 148 151 152 148 143 144 150 155 155 157 161 163 169 174 171 163 173 165 152 115 87 130 185 315 314
292 300 295 293 299 312 309 304 273 240 229 206 188 166 149 142 146 143 148 156 161 160 152 150 150 152 155 158 163 171 177 177 179 175 168 179 180 194 177 171 184 199 216 242
275 276 277 281 289 302 302 295 269 247 245 228 173 155 142 146 152 157 160 164 161 157 155 154 153 154 157 158 167 178 185 173 192 183 183 188 191 208 220 224 200 189 186 191
262 263 270 281 280 280 278 266 239 228 218 210 184 173 166 166 164 166 158 159 157 162 163 160 157 153 157 165 172 183 184 180 185 181 192 198 203 217 226 232 256 262 221 162
267 262 260 259 259 258 258 256 241 229 221 209 199 186 177 170 169 164 157 155 168 165 157 155 157 158 167 174 176 183 173 161 196 198 199 198 210 225 227 237 248 261 270 293
258 256 256 256 253 255 262 265 251 234 222 214 201 184 177 171 165 160 163 161 162 160 163 164 160 161 169 182 188 185 177 168 182 207 205 205 219 226 235 249 256 264 278 57
260 263 261 256 250 250 255 252 238 224 214 209 200 192 185 178 178 167 164 159 154 161 165 160 156 167 172 185 194 197 187 183 191 203 206 210 230 233 238 249 263 278 290 147
252 252 253 251 249 245 244 240 231 210 198 189 190 188 187 182 172 166 162 166 168 167 158 147 154 187 182 177 195 198 199 197 200 204 212 196 224 233 235 240 248 259 278 289
239 237 237 234 232 236 234 224 206 191 193 194 189 182 180 173 172 174 171 183 177 134 138 144 180 187 184 175 214 212 202 209 211 209 211 222 231 237 248 256 257 257 270 276
229 219 214 213 210 211 202 193 188 186 193 202 198 192 177 169 182 187 190 186 144 136 153 166 192 183 179 163 222 228 213 215 219 222 220 226 236 240 249 261 267 270 274 282
207 195 192 189 182 176 170 169 168 170 181 194 193 192 178 177 188 192 191 182 144 139 179 194 180 123 134 211 223 223 219 226 228 225 226 230 234 236 243 254 261 266 273 283
170 171 186 192 184 172 160 164 172 171 179 195 200 203 193 191 198 196 185 163 158 159 202 175 114 126 176 228 228 221 223 231 237 234 231 235 238 242 247 252 257 266 275 272
134 109 185 181 162 157 167 171 177 176 179 186 193 198 195 192 194 190 149 132 144 171 197 124 139 164 213 230 234 231 227 231 239 244 240 235 237 242 249 258 258 254 252 260
15 48 122 169 184 185 174 180 188 186 190 183 186 181 197 202 200 163 158 156 151 179 174 149 163 190 221 230 231 235 235 237 246 252 244 250 249 245 247 254 265 269 266 259
16 360 24 346 241 195 188 203 202 188 193 187 173 164 175 179 182 175 180 180 180 185 181 161 172 199 223 225 221 226 224 209 219 227 233 241 247 252 255 263 257 263 264 259
130 146 163 170 132 137 171 167 163 185 187 176 162 165 180 185 183 185 187 182 184 189 178 174 184 200 215 225 225 229 229 232 238 247 250 249 252 261 268 269 273 264 248 238